GW3138 Weather Reports


time (UTC)temp
C
wind
direction
speed
KPH
gust
KPH
rain 1hr
cm
rain 24hr
cm
rain mn
cm
humidity
%
barometer
mb
20260504151010 18 0 1.6 6.4 0.00 0.05 0.05 57 1018.5
20260504150511 18 0 0.0 6.4 0.00 0.05 0.05 58 1018.5
20260504141013 17 0 0.0 1.6 0.00 0.05 0.05 60 1018.9
20260504140513 17 121 0.0 1.6 0.00 0.05 0.05 64 1018.8
20260504130511 13 0 0.0 0.0 0.00 0.05 0.05 91 1018.6
20260504110511 7 0 0.0 0.0 0.00 0.05 0.05 95 1018.1
20260504100513 7 0 0.0 1.6 0.00 0.05 0.05 96 1017.9
20260504081534 8 0 0.0 0.0 0.05 0.05 0.05 93 1017.8
20260504081013 8 0 0.0 1.6 0.05 0.05 0.05 92 1017.7
20260504080513 10 0 0.0 1.6 0.05 0.05 0.05 91 1017.7
20260504050513 12 0 0.0 1.6 0.00 0.00 0.00 59 1018.7
20260504045515 12 0 0.0 1.6 0.00 0.00 0.00 60 1018.5
20260504045014 12 123 0.0 1.6 0.00 0.00 0.00 61 1018.5
20260504044532 12 0 0.0 1.6 0.00 0.00 0.00 62 1018.6
20260504044012 12 0 0.0 1.6 0.00 0.00 0.00 61 1018.6
20260504043511 12 0 0.0 1.6 0.00 0.00 0.00 61 1018.8
20260504043029 12 0 0.0 1.6 0.00 0.00 0.00 62 1018.9
20260504042513 12 0 0.0 1.6 0.00 0.00 0.00 62 1018.8
20260504042012 12 0 0.0 1.6 0.00 0.00 0.00 62 1018.9
20260504041529 12 0 0.0 1.6 0.00 0.00 0.00 63 1018.9
20260504041014 12 0 0.0 1.6 0.00 0.00 0.00 63 1019.1
20260504040522 12 0 0.0 1.6 0.00 0.00 0.00 61 1019.1
20260504040034 12 0 0.0 1.6 0.00 0.00 0.00 58 1019.1
20260504035512 12 0 0.0 1.6 0.00 0.00 0.00 58 1019.1
20260504035015 12 0 0.0 0.0 0.00 0.00 0.00 59 1019.0
20260504034531 12 0 0.0 1.6 0.00 0.00 0.00 59 1018.9
20260504034012 12 0 0.0 1.6 0.00 0.00 0.00 60 1018.9
20260504033509 12 0 0.0 3.2 0.00 0.00 0.00 61 1019.0
20260504033032 12 0 0.0 3.2 0.00 0.00 0.00 62 1019.1
20260504032518 12 0 0.0 3.2 0.00 0.00 0.00 61 1019.2
20260504032015 12 106 0.0 3.2 0.00 0.00 0.00 62 1019.1
20260504031532 12 0 0.0 1.6 0.00 0.00 0.00 61 1019.0
20260504031013 12 0 0.0 1.6 0.00 0.00 0.00 62 1019.0
20260504030512 12 0 0.0 1.6 0.00 0.00 0.00 61 1018.9
20260504030035 12 0 0.0 1.6 0.00 0.00 0.00 61 1018.9
20260504025510 12 0 0.0 1.6 0.00 0.00 0.00 61 1019.0
20260504025014 12 0 0.0 1.6 0.00 0.00 0.00 60 1019.1
20260504024532 12 0 0.0 1.6 0.00 0.00 0.00 59 1019.2
20260504024010 12 0 0.0 3.2 0.00 0.00 0.00 60 1018.9
20260504023512 13 0 0.0 3.2 0.00 0.00 0.00 58 1018.9
20260504023031 13 0 0.0 3.2 0.00 0.00 0.00 58 1018.9
20260504022514 12 0 0.0 1.6 0.00 0.00 0.00 58 1018.8
20260504022014 12 0 0.0 1.6 0.00 0.00 0.00 58 1018.9
20260504021532 12 111 0.0 1.6 0.00 0.00 0.00 58 1018.9
20260504021012 12 0 0.0 1.6 0.00 0.00 0.00 59 1018.9
20260504020511 12 0 0.0 1.6 0.00 0.00 0.00 58 1018.8
20260504020030 12 0 0.0 1.6 0.00 0.00 0.00 57 1018.7
20260504015512 12 103 0.0 1.6 0.00 0.00 0.00 57 1018.6
20260504015011 12 0 0.0 1.6 0.00 0.00 0.00 56 1018.7
20260504014530 12 0 0.0 1.6 0.00 0.00 0.00 56 1018.7
20260504014012 13 103 0.0 1.6 0.00 0.00 0.00 56 1018.7
20260504013511 12 0 0.0 1.6 0.00 0.00 0.00 56 1018.5
20260504013035 12 0 0.0 1.6 0.00 0.00 0.00 56 1018.4
20260504012511 12 0 0.0 1.6 0.00 0.00 0.00 57 1018.3
20260504012013 12 0 0.0 1.6 0.00 0.00 0.00 57 1018.4
20260504011534 12 0 0.0 1.6 0.00 0.00 0.00 56 1018.3
20260504011011 13 0 0.0 1.6 0.00 0.00 0.00 56 1018.3
20260504010510 13 0 0.0 1.6 0.00 0.00 0.00 57 1018.3
20260504010029 13 0 0.0 1.6 0.00 0.00 0.00 56 1018.3
20260504005511 13 0 0.0 1.6 0.00 0.00 0.00 57 1018.2
20260504005029 13 0 0.0 1.6 0.00 0.00 0.00 55 1018.3
20260504004530 13 0 0.0 1.6 0.00 0.00 0.00 55 1018.3
20260504004011 13 0 0.0 1.6 0.00 0.00 0.00 55 1018.3
20260504003516 13 0 0.0 4.8 0.00 0.00 0.00 55 1018.2
20260504003039 13 0 0.0 4.8 0.00 0.00 0.00 56 1018.1
20260504002511 13 0 0.0 1.6 0.00 0.00 0.00 55 1018.1
20260504002014 13 0 0.0 3.2 0.00 0.00 0.00 55 1018.2
20260504001538 14 119 0.0 3.2 0.00 0.00 0.00 54 1018.1
20260504001013 14 0 0.0 3.2 0.00 0.00 0.00 54 1018.1
20260504000513 14 0 0.0 1.6 0.00 0.00 0.00 54 1018.1
20260504000051 15 0 0.0 4.8 0.00 0.00 0.00 54 1018.0
20260503235513 15 0 0.0 4.8 0.00 0.00 0.00 53 1018.0
20260503235013 15 0 0.0 3.2 0.00 0.00 0.00 54 1018.0
20260503234529 15 139 0.0 6.4 0.00 0.00 0.00 53 1017.9
20260503234011 15 131 0.0 6.4 0.00 0.00 0.00 53 1017.9
20260503233512 15 129 0.0 6.4 0.00 0.00 0.00 51 1018.0
20260503233031 15 0 0.0 4.8 0.00 0.00 0.00 52 1018.0
20260503232512 15 95 0.0 4.8 0.00 0.00 0.00 53 1018.0
20260503232013 16 0 0.0 4.8 0.00 0.00 0.00 55 1018.0
20260503231532 16 0 0.0 4.8 0.00 0.00 0.00 51 1017.9
20260503231011 16 0 0.0 3.2 0.00 0.00 0.00 52 1018.0
20260503230514 16 0 0.0 3.2 0.00 0.00 0.00 54 1018.0
20260503230030 16 0 0.0 3.2 0.00 0.00 0.00 52 1018.0
20260503225512 16 0 0.0 3.2 0.00 0.00 0.00 53 1018.0
20260503225012 16 242 0.0 1.6 0.00 0.00 0.00 55 1018.0
20260503224530 17 0 0.0 4.8 0.00 0.00 0.00 53 1018.0
20260503224011 17 0 0.0 4.8 0.00 0.00 0.00 51 1018.0
20260503223514 17 0 0.0 4.8 0.00 0.00 0.00 52 1018.0
20260503223038 17 113 0.0 4.8 0.00 0.00 0.00 51 1018.0
20260503222510 17 0 0.0 6.4 0.00 0.00 0.00 50 1018.1
20260503222013 18 0 0.0 6.4 0.00 0.00 0.00 48 1018.1
20260503221546 18 0 0.0 6.4 0.00 0.00 0.00 51 1018.1
20260503221012 18 0 0.0 1.6 0.00 0.00 0.00 47 1018.2
20260503220514 18 0 0.0 3.2 0.00 0.00 0.00 49 1018.3
20260503220030 19 0 0.0 3.2 0.00 0.00 0.00 50 1018.2
20260503215512 19 63 0.0 3.2 0.00 0.00 0.00 47 1018.3
20260503215014 19 0 0.0 4.8 0.00 0.00 0.00 49 1018.3
20260503214533 19 39 0.0 4.8 0.00 0.00 0.00 50 1018.3
20260503214017 20 25 0.0 4.8 0.00 0.00 0.00 45 1018.3
20260503213518 20 67 0.0 6.4 0.00 0.00 0.00 47 1018.3
20260503213031 19 0 0.0 6.4 0.00 0.00 0.00 48 1018.3
20260503212513 19 35 1.6 12.9 0.00 0.00 0.00 48 1018.4
20260503212014 19 0 0.0 12.9 0.00 0.00 0.00 47 1018.5
20260503211533 20 4 3.2 9.7 0.00 0.00 0.00 47 1018.4
20260503211015 20 0 0.0 8.0 0.00 0.00 0.00 46 1018.6
20260503210515 20 0 0.0 8.0 0.00 0.00 0.00 45 1018.6
20260503210033 20 46 1.6 8.0 0.00 0.00 0.00 45 1018.5
20260503205515 20 41 0.0 4.8 0.00 0.00 0.00 44 1018.6
20260503205015 20 27 0.0 4.8 0.00 0.00 0.00 50 1018.7
20260503204531 20 330 0.0 4.8 0.00 0.00 0.00 47 1018.8
20260503204014 20 0 0.0 9.7 0.00 0.00 0.00 50 1018.8
20260503203516 19 0 0.0 9.7 0.00 0.00 0.00 47 1018.8
20260503203041 20 92 0.0 6.4 0.00 0.00 0.00 49 1019.0
20260503202515 20 75 0.0 6.4 0.00 0.00 0.00 44 1019.0
20260503202015 20 103 0.0 9.7 0.00 0.00 0.00 48 1019.2
20260503201537 19 0 0.0 9.7 0.00 0.00 0.00 48 1019.3
20260503201014 19 316 1.6 9.7 0.00 0.00 0.00 47 1019.5
20260503200512 19 349 0.0 9.7 0.00 0.00 0.00 45 1019.5
20260503200036 20 36 1.6 9.7 0.00 0.00 0.00 50 1019.5
20260503195513 20 94 1.6 6.4 0.00 0.00 0.00 53 1019.6
20260503195015 20 37 0.0 6.4 0.00 0.00 0.00 44 1019.8
20260503194531 20 8 1.6 6.4 0.00 0.00 0.00 44 1019.8
20260503194015 20 61 0.0 3.2 0.00 0.00 0.00 45 1019.9
20260503193515 19 0 0.0 4.8 0.00 0.00 0.00 46 1020.0
20260503193032 19 75 0.0 4.8 0.00 0.00 0.00 46 1020.2
20260503192514 19 345 0.0 4.8 0.00 0.00 0.00 47 1020.3
20260503192015 19 322 0.0 4.8 0.00 0.00 0.00 48 1020.3
20260503191532 19 52 0.0 4.8 0.00 0.00 0.00 49 1020.4
20260503191015 18 36 0.0 4.8 0.00 0.00 0.00 45 1020.4
20260503190520 19 360 1.6 4.8 0.00 0.00 0.00 44 1020.4
20260503190037 18 14 0.0 4.8 0.00 0.00 0.00 48 1020.4
20260503185515 18 37 1.6 6.4 0.00 0.00 0.00 43 1020.5
20260503185013 18 0 0.0 9.7 0.00 0.00 0.00 41 1020.6
20260503184532 18 26 0.0 9.7 0.00 0.00 0.00 50 1020.6
20260503184015 18 24 1.6 9.7 0.00 0.00 0.00 48 1020.6
20260503183517 18 328 3.2 8.0 0.00 0.00 0.00 48 1020.7
20260503183031 18 0 0.0 4.8 0.00 0.00 0.00 52 1020.7
20260503182516 18 110 0.0 11.3 0.00 0.00 0.00 50 1020.7
20260503182012 18 0 0.0 11.3 0.00 0.00 0.00 47 1020.9
20260503181531 18 342 3.2 11.3 0.00 0.00 0.00 50 1020.9
20260503181012 18 101 0.0 6.4 0.00 0.00 0.00 50 1020.9
20260503180513 18 0 0.0 8.0 0.00 0.00 0.00 50 1021.0
20260503180032 18 23 0.0 8.0 0.00 0.00 0.00 48 1021.0
20260503175512 18 0 0.0 4.8 0.00 0.00 0.00 49 1021.0
20260503175011 17 0 0.0 16.1 0.00 0.00 0.00 51 1020.9
20260503174531 17 51 1.6 16.1 0.00 0.00 0.00 47 1021.1
20260503174016 17 23 4.8 16.1 0.00 0.00 0.00 47 1021.0
20260503173510 17 29 0.0 8.0 0.00 0.00 0.00 56 1021.1
20260503173050 17 42 1.6 9.7 0.00 0.00 0.00 53 1021.1
20260503172510 16 86 1.6 9.7 0.00 0.00 0.00 55 1021.3
20260503172016 17 4 3.2 9.7 0.00 0.00 0.00 57 1021.3
20260503171536 16 24 0.0 4.8 0.00 0.00 0.00 55 1021.3
20260503171011 16 16 3.2 6.4 0.00 0.00 0.00 48 1021.3
20260503170511 16 0 1.6 6.4 0.00 0.00 0.00 50 1021.4